Regional Weather Roundup
Issued by NWS Lake Charles, LA

Current Version | Previous Version | Text Only | Print | Product List | Glossary On
Versions: 1 2 3 4 5 6 7 8 9 10 11 12 13 14 15 16 17 18 19 20 21 22 23 24 25 26 27
000
ASUS44 KLCH 251310
RWRLCH
REGIONAL WEATHER ROUNDUP
NATIONAL WEATHER SERVICE LAKE CHARLES LA
800 AM CDT SUN SEP 25 2016

Note: "fair" indicates few or no clouds below 12,000 feet with no
significant weather and/or obstructions to visibility.


ACROSS SOUTHEAST TEXAS

CITY           SKY/WX    TMP DP  RH WIND       PRES   REMARKS
BEAUMONT       MOSUNNY   78  75  90 NE5       29.99R
BEAUMONT CITY  FAIR      79  75  89 E3        30.00S
ORANGE         PTSUNNY   76  76 100 E3        30.02R
JASPER         MOSUNNY   73  72  98 CALM      30.04R
$$

ACROSS CENTRAL LOUISIANA

CITY           SKY/WX    TMP DP  RH WIND       PRES   REMARKS
LEESVILLE      SUNNY     73  72  96 VRB2      30.04R
FULLERTON      FAIR      70  69  97 CALM      30.02R FOG
ALEXANDRIA INT SUNNY     71  71 100 CALM      30.04R FOG
ESLER FIELD    FOG       69  69 100 CALM      30.05R VSB 1/4
DERIDDER       FAIR      73  72  95 E3        30.05S
OAKDALE        SUNNY     70  70  98 CALM      30.04R FOG
OPELOUSAS      FAIR      72  71  99 CALM      30.04R
$$

ACROSS SOUTHWEST AND SOUTH CENTRAL LOUISIANA

CITY           SKY/WX    TMP DP  RH WIND       PRES   REMARKS
SULPHUR        MOSUNNY   77  75  94 E6        30.02R
LAKE CHARLES   MOSUNNY   76  74  93 E6        30.01S
CHENNAULT INT  SUNNY     75  73  94 CALM      30.01S
CAMERON PHI    PTSUNNY   79  75  89 E7G14     29.99S
DEQUINCY       FAIR      74  73  96 CALM      30.02S
JENNINGS       FAIR      74  73  94 E5        30.02S
LAFAYETTE      SUNNY     76  72  87 E3        30.03R
NEW IBERIA     SUNNY     76  72  87 E6        30.04R
ABBEVILLE      FAIR      74  74 100 CALM      30.03S
PATTERSON      SUNNY     76  75  97 NE5       30.04S
SALT POINT     NOT AVBL
$$

SELECTED SITES ACROSS THE REGION

CITY           SKY/WX    TMP DP  RH WIND       PRES   REMARKS
HOUSTON BUSH   MOCLDY    77  75  93 NE5       29.98S
HOUSTON HOBBY  MOCLDY    77  75  93 CALM      29.97S
GALVESTON      MOSUNNY   83  77  82 S7        29.97F
COLLEGE STAT   CLOUDY    75  74  96 CALM      29.99R
CONROE         MOCLDY    74  73  97 E3        30.00R
HUNTSVILLE     CLOUDY    75  73  93 E3        30.00S
LUFKIN         CLOUDY    74  73  97 E6        30.02R
SHREVEPORT     PTSUNNY   75  73  93 SE3       30.04R
MONROE         SUNNY     72  71  97 CALM      30.06R
NATCHEZ MS     SUNNY     72  66  83 CALM      30.06R
BATON ROUGE    SUNNY     74  72  93 E5        30.05R
N.O. INTL ARPT MOSUNNY   80  75  84 CALM      30.04S
SLIDELL        SUNNY     74  72  93 CALM      30.05R
$$

MARINE REPORTS

STATION/POSITION TIME  SKY/WX   TEMP    WIND        PRES    VSBY
                                AIR SEA DIR/SP/G
                 (UTC)          (F)     (DEG/KT/KT) (MB)    (MI)
BUOY 30 S HIGH I 1250            82 86  130/  6/  8 1015.0F
WVE H/P(F/S)=  2/ 5

SEA RIM ST PARK  1200            80     230/  4/  5 1016.0R
PORT ARTHUR      1200               87  130/  2/  5 1015.4R
SABINE PASS N    1200            82 87  170/  5/  8 1016.7R
TEXAS POINT      NOT AVBL
CALCASIEU PASS   1200            81 85  150/  2/  4 1014.7R
LK CHARLES BEACH 1200            76 85              1016.6R
MARSH ISLAND     1200            78                   N/A
FRESH WATER LOCK 1200            78 86  150/ 15/ 19 1017.0R
AMERADA PASS     1200            78 84   90/  2/  3 1016.6R
$$




USA.gov is the U.S. government's official web portal to all federal, state and local government web resources and services.